Main page
METAR-TAF:

METAR-TAF

Airports :

Orange Municipal Airport

Orange, Massachusetts, United States

latitude: 42-34-18N, longitude: 072-16-39W, elevation: 554 ft

Current weather observation

The report was made 59 minutes ago, at 02:52 UTC
Calm wind
Temperature 34°F
Humidity 75%
Pressure 29.95 in. Hg
Visibility: 10 miles
Clear sky

METAR: KORE 250252Z AUTO 00000KT 10SM CLR 01/M03 A2995 RMK AO2 SLP149 T00111033 51008

Time: 22:51 (03:51 UTC)


TAF: missing

Weather observations and forecasts of more than 4000 airports (METAR and TAF reports).

The available stations are represented by yellow and red dots on the map.

Hover mouse over dot to see the name of the station.

Then click to see weather observations and forecasts.

To change the map : click on the green buttons with a black cross to zoom in, on the green button with a dash to zoom out, or on the green arrows for adjacent maps.


METAR-TAF: